Location: Freemans Gardens
(41.6414°N, 83.6077°W)
Time: 03:47:51
(UTC+00:00)

COSMO-SKYMED 1 - Pass Details

Date: 29 October 2020
Orbit: 621 x 623 km, 97.9° (Epoch: 26 November)

Event Time Altitude Azimuth Distance (km) Brightness Sun altitude
Rises 23:32:04 0° 14° (NNE) 2,911 5.8 -11.7°
Reaches altitude 10° 23:34:17 10° 17° (NNE) 2,000 4.9 -12.1°
Maximum altitude 23:38:37 71° 101° (ESE) 662 2.5 -12.9°
Drops below altitude 10° 23:42:55 10° 186° (S) 1,983 5.3 -13.7°
Sets 23:45:06 0° 189° (S) 2,885 6.2 -14.1°
